User: anonymous   Login
Location: Caltech
(34.1382°N, 118.1253°W)
Time: 22:19:41
(UTC-07:00)
Language:

NOSS 3-2 (A) - Orbit

View from above orbital plane
View from above orbital plane
View from above satellite
View from above satellite

Ground track
Ground track

The orbit data is extracted from the following two-line orbital elements,

1 28095U 03054A   17130.86067826 0.00000000  00000-0  00000-0 0    04
2 28095  63.4194  47.5188 0300000 358.0839   1.9161 13.41349282    00
Epoch (UTC): 10 May 2017 20:39:22
Eccentricity: 0.0300000
inclination: 63.4194°
perigee height: 880 km
apogee height: 1329 km
right ascension of ascending node: 47.5188°
argument of perigee: 358.0839°
revolutions per day: 13.41349282
mean anomaly at epoch: 1.9161°
orbit number at epoch: 0

The dashed part of the orbit path shows where the satellite is in the earth's shadow,  

DLR